Theta_e
314 313 312 313 313 312 313 313 313 314 314 314 314 312 312 311 310 312 314 311 312 313 314 314 314 314 314 314 315 315 315 315 315 315 315 315 315 316 316 315 316 316 317 318 319 318 318 319 321 322 325 327 327 328 329 330 332 333 334 335 335 335 334 334 334 334 333 333 332 332 332 331 331 332 332 333 332 332 331 331 330 330 330 330 330 329
313 313 312 312 313 312 312 313 313 313 313 313 313 312 311 312 311 313 314 311 312 312 313 315 314 314 315 315 315 315 315 315 315 315 315 315 315 316 317 317 318 317 320 323 321 319 318 316 316 317 319 323 326 327 327 327 329 330 332 333 335 335 333 333 333 333 333 333 333 332 332 332 331 331 331 332 332 332 332 332 331 331 330 330 329 329
313 314 313 312 313 313 313 313 312 313 313 313 313 312 311 312 312 312 313 312 312 312 313 315 315 315 315 315 315 315 315 316 315 316 315 316 315 316 316 317 319 319 321 323 321 318 317 316 315 314 314 316 320 324 326 327 327 328 331 332 333 334 333 333 332 332 333 333 333 333 333 332 332 332 332 331 331 332 332 331 331 331 330 329 330 329
313 313 312 311 312 313 312 312 312 313 313 313 314 311 311 315 312 311 313 313 312 311 313 315 315 314 315 315 315 316 316 316 316 316 317 318 318 317 318 320 320 320 321 322 320 318 318 317 316 315 314 313 314 318 323 326 327 328 329 330 331 332 332 333 332 331 333 333 333 333 333 332 332 332 333 332 332 331 331 331 331 331 331 330 330 331
314 311 309 310 312 312 312 312 313 312 312 315 317 313 313 316 314 312 314 313 313 312 313 314 312 312 314 314 314 315 316 316 316 316 316 317 318 319 320 322 321 320 320 321 320 319 317 317 317 316 314 312 312 314 318 322 325 327 328 328 329 330 331 332 331 330 332 332 332 332 332 331 331 332 333 333 332 332 332 332 331 331 331 330 330 330
314 308 307 311 312 313 313 313 314 313 311 313 318 316 314 314 314 314 315 314 313 313 314 314 310 309 313 315 314 315 316 315 315 315 314 315 316 317 317 318 318 319 319 319 318 319 319 318 317 316 314 313 313 313 313 316 322 326 326 327 328 330 330 331 331 330 330 331 332 331 331 330 330 331 331 331 331 332 331 331 331 331 331 330 330 330
311 306 309 313 313 315 315 312 315 316 311 311 317 318 315 315 316 316 317 314 311 312 314 313 311 310 312 314 316 316 315 314 315 314 314 314 315 317 317 316 316 317 317 317 317 316 316 317 317 316 315 314 313 313 312 313 317 322 325 326 327 328 329 330 330 330 330 331 331 330 330 330 330 330 330 330 330 330 330 329 330 330 331 330 329 328
309 308 311 315 315 316 315 313 317 316 312 314 318 318 315 316 317 317 317 314 312 314 313 314 315 312 310 313 316 316 314 314 315 315 315 315 315 316 316 315 315 316 315 316 317 316 315 315 315 315 314 314 313 312 311 311 313 317 321 324 326 327 328 328 329 330 330 329 329 330 329 329 330 330 330 329 329 329 329 329 329 329 329 329 328 328
311 312 313 315 315 316 315 316 318 316 314 316 316 317 316 318 319 318 316 314 314 314 311 314 316 311 309 312 315 315 312 313 314 314 315 316 316 316 315 315 316 315 315 315 316 317 317 316 314 313 313 313 312 311 311 311 311 312 316 320 323 325 326 327 327 328 329 328 328 329 329 328 328 329 329 329 329 329 329 330 330 329 329 329 330 330
313 312 313 315 316 316 314 312 316 319 317 315 314 316 317 318 318 318 316 314 314 313 311 315 316 311 309 310 312 313 312 313 314 314 315 316 316 316 316 317 316 315 315 315 315 316 317 316 313 312 311 311 312 310 309 310 310 311 313 317 320 323 324 325 326 327 327 326 326 327 328 328 327 327 328 329 329 328 329 329 330 330 330 330 331 331
311 310 312 314 314 313 310 309 313 318 316 314 316 316 316 316 315 315 314 313 313 313 313 315 316 312 309 309 311 314 313 313 314 314 315 315 315 317 316 316 315 313 313 314 314 316 316 314 312 311 310 313 313 309 309 310 310 311 314 316 319 321 323 324 324 325 325 325 325 326 327 327 327 327 327 327 328 328 327 328 328 329 329 329 329 329
313 311 313 313 310 311 312 311 312 314 314 316 318 315 314 314 314 313 313 313 313 313 312 312 314 314 310 309 311 314 313 312 312 313 314 315 316 317 317 316 314 313 313 313 315 317 317 315 314 313 314 316 314 311 311 312 312 314 315 316 318 320 322 323 323 323 324 324 324 325 326 326 326 326 326 326 327 326 326 326 327 327 327 327 327 328
316 314 313 312 309 311 315 313 311 312 314 316 315 313 313 314 314 314 313 313 313 312 310 308 312 314 311 310 312 313 313 312 312 313 313 314 315 316 317 317 316 315 314 314 316 318 317 318 318 318 317 317 316 314 315 314 315 316 317 318 318 320 321 322 322 322 323 324 324 324 324 325 325 326 326 325 325 325 325 325 325 325 325 325 325 326
317 315 314 314 311 311 314 314 312 312 313 314 315 313 312 313 314 315 314 314 313 312 310 309 312 313 311 311 314 314 313 313 312 312 313 313 313 313 315 315 316 316 315 315 318 319 319 320 320 319 319 318 318 317 317 317 317 318 319 319 319 321 322 321 320 320 321 323 323 323 324 324 324 325 325 325 324 324 324 324 324 323 324 324 324 324
316 315 314 315 314 312 314 315 315 314 313 316 318 315 312 313 314 314 314 314 314 312 310 309 311 311 310 312 314 314 313 313 311 310 312 312 312 313 313 314 315 316 315 316 319 319 319 319 319 319 319 319 319 318 318 318 319 319 320 320 321 321 320 318 318 319 320 322 322 323 323 323 323 324 324 324 324 323 323 323 323 323 322 322 323 323
315 315 314 314 314 314 315 316 316 315 314 315 317 315 313 314 313 312 312 312 312 312 311 310 311 311 312 314 315 314 313 313 311 310 310 311 312 313 313 315 317 316 315 316 320 320 318 318 318 318 318 318 318 318 318 318 319 320 320 321 322 320 317 316 317 319 320 321 321 322 322 322 323 323 322 323 322 322 322 322 323 322 322 322 322 322
314 315 314 313 313 312 312 315 315 315 315 313 313 313 312 314 314 312 310 309 309 311 312 312 312 311 311 313 314 315 314 312 311 310 311 312 313 313 315 317 319 318 316 316 318 318 318 318 317 318 318 318 317 318 318 318 318 320 321 321 322 319 316 316 317 318 319 320 320 320 320 321 321 320 320 321 321 321 321 321 322 322 321 321 321 321
314 314 313 314 315 311 310 313 315 314 315 313 313 314 312 312 313 310 310 311 310 311 311 312 312 310 309 311 312 313 312 312 312 311 310 311 312 313 316 319 319 317 315 314 315 316 317 318 317 317 317 317 317 318 318 318 318 319 320 320 321 318 317 317 317 318 319 319 319 319 319 319 320 320 320 320 320 321 321 320 320 320 320 320 320 319
316 315 313 313 314 312 311 314 314 313 315 313 313 314 312 313 312 310 311 312 312 313 311 311 310 309 309 310 310 311 311 312 313 312 311 310 311 314 317 319 318 316 315 314 314 316 317 318 317 317 317 316 316 316 316 316 316 317 318 319 320 319 318 318 318 318 318 319 319 319 319 319 319 320 320 320 320 320 320 319 319 318 318 318 317 316
316 316 315 313 313 313 312 313 313 314 314 312 311 313 313 314 313 311 312 311 311 312 311 311 311 310 311 311 311 311 312 311 311 313 313 312 312 315 317 318 318 316 314 314 315 315 316 317 316 316 316 315 314 314 314 314 315 315 316 317 318 318 318 318 318 318 318 318 319 319 319 319 319 319 318 318 318 318 318 317 316 316 316 315 315 314
313 312 316 314 312 314 313 314 315 315 314 312 312 312 312 313 312 311 312 311 311 311 310 312 311 309 311 313 312 312 312 312 313 314 315 314 313 314 315 317 317 316 313 313 315 316 316 317 315 314 313 312 312 312 312 313 314 314 315 315 316 316 316 316 317 317 317 317 318 318 317 317 317 317 317 316 316 316 315 314 314 314 313 313 312 312
312 311 316 315 313 315 315 313 313 315 316 315 313 313 313 313 312 313 314 312 311 311 310 311 311 310 312 313 311 311 311 311 312 314 314 314 312 313 315 315 315 314 312 312 315 315 315 316 315 313 312 311 311 311 311 312 312 313 313 314 314 314 314 315 315 315 315 315 315 315 315 315 314 314 314 314 313 313 313 312 312 311 311 310 310 310
315 314 316 316 315 314 313 311 309 311 317 316 313 314 314 314 314 314 315 314 312 310 308 310 311 312 313 312 311 311 310 309 310 311 313 312 311 313 315 315 313 313 311 311 313 314 314 314 313 312 312 312 312 311 310 311 311 311 312 312 312 312 312 313 313 313 313 313 313 312 312 312 312 312 312 311 311 311 311 310 310 309 309 308 308 308
314 315 316 315 315 313 312 312 310 312 316 315 314 316 315 315 316 314 313 314 313 311 309 311 312 312 313 314 311 310 309 310 309 309 311 312 312 314 316 315 315 314 313 312 313 313 313 313 313 313 314 313 312 311 310 310 310 310 310 310 310 310 310 310 311 311 311 311 311 311 311 310 310 310 310 310 310 309 308 308 307 307 307 307 307 307
311 313 316 315 316 315 314 314 314 314 314 313 314 316 314 316 318 314 312 312 313 314 313 312 312 312 314 315 312 309 309 311 310 309 310 312 315 317 317 316 315 315 314 314 313 313 313 313 313 313 313 311 310 310 309 308 308 307 307 307 308 308 308 308 309 309 309 309 309 309 309 309 309 309 309 308 307 306 306 306 306 305 305 306 305 305
312 313 314 315 316 317 316 316 316 316 314 313 316 317 315 316 316 314 313 312 313 317 317 313 311 311 312 311 310 309 310 310 311 311 311 312 314 316 317 317 316 315 315 314 314 313 312 312 312 311 310 309 308 308 308 307 306 306 305 306 306 306 307 307 308 308 308 308 308 308 307 307 307 307 306 305 305 305 304 304 304 304 305 305 305 305
312 313 314 313 315 315 316 317 318 319 316 315 317 319 317 317 316 315 315 314 314 317 317 314 313 312 311 309 309 310 311 310 311 312 312 312 312 314 315 316 316 315 315 314 313 313 312 311 310 310 309 308 307 306 306 306 305 305 304 304 305 306 306 306 306 307 306 306 306 305 305 305 304 304 304 304 304 303 304 304 304 304 304 305 305 305
311 313 315 314 315 314 314 317 319 319 317 316 317 319 319 318 317 317 316 315 315 316 315 315 316 315 313 311 310 311 311 311 312 312 312 312 313 314 314 315 315 315 314 313 313 312 312 311 310 309 308 307 306 305 304 304 303 303 303 303 304 305 305 305 305 305 304 304 304 303 303 303 303 303 304 304 304 304 305 305 305 305 305 305 305 305
311 312 314 316 316 315 315 318 319 317 318 317 317 318 319 318 317 317 317 316 316 316 314 314 316 316 314 312 311 311 312 312 312 313 313 314 315 314 314 314 314 314 313 313 313 313 311 310 309 309 307 306 306 305 304 303 302 302 302 302 303 304 304 304 304 304 304 303 303 303 303 303 304 304 304 304 305 305 305 305 305 305 305 305 305 305
312 312 314 315 316 316 316 318 318 317 318 318 318 318 318 317 316 316 316 315 316 316 315 314 316 316 315 314 312 311 313 313 313 313 313 314 315 315 314 314 314 314 314 313 312 311 309 308 307 307 306 305 304 304 303 302 301 301 301 302 302 302 303 303 303 303 303 303 302 302 303 303 303 303 303 303 303 303 303 303 303 303 303 302 302 302
312 313 315 315 315 314 316 318 318 318 317 318 319 320 318 317 317 316 316 315 315 316 315 315 316 316 316 315 313 313 315 314 312 312 312 313 315 315 315 315 316 316 314 312 311 310 308 307 306 305 304 303 302 302 302 301 300 300 301 301 302 302 302 303 302 302 302 301 301 301 301 301 301 301 301 301 300 300 300 300 300 300 299 299 299 298
312 312 315 314 313 313 316 319 318 316 314 315 318 320 318 317 317 316 315 316 315 315 316 317 317 316 315 315 315 315 315 313 312 312 312 313 315 315 314 316 317 316 313 311 310 309 307 306 305 304 302 301 300 300 300 300 300 299 299 300 300 301 301 301 301 300 300 300 299 299 299 299 299 298 298 298 297 297 296 296 296 296 295 295 295 295
311 312 313 313 312 313 316 317 315 313 312 312 314 317 317 316 316 316 316 316 315 315 316 317 317 316 315 315 315 314 314 313 312 312 313 315 316 315 314 315 316 314 311 310 310 308 306 304 302 301 300 299 299 298 298 299 299 298 298 299 299 299 300 300 299 299 298 298 297 297 296 296 296 295 294 294 294 294 294 294 294 293 293 293 293 293
312 312 312 312 312 313 315 315 313 312 312 312 313 315 317 316 316 316 316 315 315 315 315 315 315 315 315 315 314 313 313 312 312 314 316 317 317 316 313 312 313 312 310 309 307 305 304 302 300 299 298 297 297 297 297 298 298 297 297 298 298 298 298 297 297 296 295 295 294 294 294 293 293 293 293 293 293 293 293 292 292 292 292 292 292 292
313 313 312 312 312 312 312 312 312 312 313 312 313 314 315 315 315 316 316 315 315 315 315 315 315 315 314 313 312 312 312 313 316 319 317 313 314 315 313 312 311 310 309 307 304 302 302 301 299 298 297 296 296 296 296 296 296 296 296 296 296 296 295 294 294 293 293 293 293 293 293 293 293 293 293 292 292 292 291 291 291 291 291 291 291 291
313 312 311 312 312 311 311 311 313 314 313 312 313 313 314 315 315 316 318 317 316 316 316 315 315 315 314 314 313 314 315 315 317 316 311 306 307 310 311 311 309 307 306 304 302 301 301 299 298 297 296 296 296 295 295 295 295 295 294 294 294 293 292 292 292 292 291 292 292 292 292 292 292 292 291 291 291 291 291 291 290 290 291 290 290 290
312 312 311 312 313 312 312 312 312 313 313 313 313 313 313 314 315 315 317 316 315 315 315 315 314 314 314 315 316 316 314 313 313 313 308 302 302 304 305 306 305 303 302 301 300 299 298 297 296 295 295 295 295 294 294 294 293 293 292 292 291 291 291 291 290 290 289 290 290 290 290 290 290 290 290 290 290 290 290 290 290 290 290 290 289 290
312 312 312 313 313 312 312 312 313 313 313 313 314 314 312 313 314 314 315 314 313 314 314 314 314 314 314 316 315 313 313 312 312 313 310 302 300 300 300 300 300 299 299 298 297 296 295 294 294 293 294 294 293 293 293 292 292 291 291 291 290 289 289 289 288 287 287 288 288 289 289 289 289 289 289 289 289 289 289 289 289 289 289 289 289 289
312 312 313 313 313 312 312 313 313 313 312 313 316 316 313 313 315 315 314 314 313 312 314 314 314 314 314 316 314 312 313 313 313 314 310 301 298 298 298 297 297 297 297 296 295 294 293 293 292 292 292 292 292 291 291 291 291 290 290 289 288 288 287 286 286 286 286 287 287 288 288 288 289 289 289 289 289 289 289 289 288 288 288 288 288 288
312 311 312 313 313 313 313 313 313 313 314 318 319 315 311 313 315 315 314 314 313 312 314 314 314 314 314 316 314 312 312 313 314 313 305 298 298 297 297 296 296 296 295 294 293 292 292 291 291 291 291 290 290 290 290 290 289 289 288 287 286 285 284 284 284 285 286 286 287 287 288 288 288 288 288 288 288 288 288 288 288 288 288 288 288 288
313 312 311 312 313 313 314 314 312 311 317 322 318 312 311 313 314 314 314 314 314 314 314 314 314 314 314 314 313 312 312 312 310 304 298 297 297 296 296 296 295 294 293 292 292 291 291 290 290 289 289 288 288 289 289 289 288 286 286 285 284 283 282 283 284 285 286 286 286 287 287 287 287 287 287 287 287 287 288 287 287 287 287 287 287 287
314 313 313 312 313 312 313 314 313 313 318 322 314 310 312 314 313 314 315 314 315 316 315 314 314 314 313 313 313 313 309 304 300 298 297 297 296 294 294 294 293 293 292 291 291 291 290 289 288 287 286 286 287 287 288 287 286 285 284 282 281 281 282 283 285 285 286 285 286 286 286 286 286 287 287 287 287 287 287 287 286 286 286 286 286 286
314 315 314 314 313 313 314 315 315 315 318 318 312 309 312 314 313 315 316 313 311 312 314 315 314 313 314 314 313 309 303 298 297 297 296 295 294 293 293 293 292 292 291 290 290 290 289 288 286 285 285 284 285 285 286 285 284 283 281 280 280 281 283 284 285 285 285 285 286 286 286 286 286 286 286 286 286 286 287 286 286 286 286 285 285 285
314 315 316 315 313 314 315 315 316 317 315 314 313 312 312 311 310 312 316 315 310 307 308 310 310 310 311 311 308 303 299 298 297 296 295 294 293 292 292 292 292 291 290 290 289 289 288 286 285 283 283 283 283 283 283 283 282 280 279 279 280 281 282 284 284 285 285 284 285 285 285 285 285 285 285 286 286 286 286 285 284 284 284 284 283 284
314 314 316 316 314 315 314 314 317 317 314 312 313 312 313 313 310 308 311 314 312 307 306 308 308 306 305 306 303 300 299 298 296 296 294 293 292 292 291 291 290 289 289 288 287 287 286 285 283 282 282 282 281 281 281 280 280 279 278 278 279 281 282 283 283 283 283 283 283 283 284 285 285 285 285 285 285 284 283 282 282 282 281 282 283 283
312 312 315 315 314 314 315 314 314 313 311 309 307 305 307 309 308 306 309 311 309 306 304 305 306 304 302 302 301 300 298 297 296 295 294 292 292 291 290 289 288 287 286 285 285 285 284 283 282 281 280 280 280 279 279 278 278 277 277 277 279 280 281 282 282 281 281 282 283 283 283 284 284 284 284 284 283 282 281 280 280 279 280 281 282 282
309 309 312 314 314 314 316 315 312 309 309 308 306 304 304 304 302 303 306 307 306 304 303 303 303 301 300 301 301 299 298 297 295 294 293 292 291 289 289 288 287 285 284 284 283 282 282 282 281 280 280 280 279 278 278 277 276 276 276 277 278 279 280 280 280 280 280 281 282 282 282 283 283 283 283 282 281 280 280 279 278 278 279 280 280 280
310 309 311 313 313 313 314 312 308 305 305 304 304 304 305 305 303 301 301 301 301 301 301 300 300 300 300 300 300 298 297 296 295 294 292 291 289 288 288 287 285 283 282 281 281 281 281 280 280 280 279 279 278 277 276 275 274 274 275 275 276 277 279 279 280 280 280 281 281 281 281 280 280 280 279 279 279 279 279 279 279 278 278 278 278 279
309 309 311 311 312 312 311 308 305 306 307 306 305 306 305 305 304 301 298 297 298 298 298 298 298 298 299 299 298 297 296 295 294 293 292 290 288 287 286 285 283 281 280 279 279 279 279 279 279 278 278 278 277 276 275 273 272 273 274 275 276 278 279 279 280 279 279 279 278 278 278 278 278 278 279 280 280 280 280 279 278 278 278 278 278 277
307 309 309 310 312 312 311 309 308 310 312 311 309 309 305 302 300 300 298 298 298 297 297 297 297 296 296 297 297 297 296 295 294 292 290 288 287 286 285 283 282 280 279 278 277 278 278 277 277 277 277 277 276 275 274 272 271 273 274 275 276 278 278 278 278 277 276 277 277 277 278 279 278 279 279 278 278 278 279 279 279 278 278 278 277 277
308 309 309 310 311 311 311 311 309 310 312 311 309 307 303 299 299 301 301 300 298 296 296 297 298 297 296 295 296 296 296 294 293 291 289 286 285 285 283 282 280 279 277 276 276 276 276 276 276 276 276 276 274 273 272 271 271 273 275 275 276 277 277 277 277 277 277 278 278 278 278 277 277 276 276 275 274 274 276 278 280 279 279 278 278 277
Wind_Speed
3 5 7 8 9 11 13 11 5 0 3 7 9 8 6 6 5 4 6 3 2 4 8 11 12 12 13 12 11 8 8 9 9 10 9 9 9 8 9 10 10 11 10 9 10 11 13 14 15 17 17 18 19 20 19 20 21 22 21 21 21 21 22 22 21 21 21 21 21 20 20 20 20 19 19 19 21 23 23 23 26 27 25 21 21 24
2 7 10 10 8 10 12 7 1 1 1 4 6 6 6 5 3 5 5 4 3 3 6 8 10 13 13 12 12 11 11 12 12 12 12 12 12 10 10 11 11 10 8 7 8 10 13 15 16 18 19 19 18 20 21 22 23 23 23 23 22 21 22 23 22 21 21 22 21 20 20 20 19 19 19 18 19 22 24 23 23 24 24 22 19 22
5 9 8 6 3 4 6 4 3 2 2 3 4 5 5 4 4 4 4 5 4 3 3 3 6 11 12 14 13 13 13 13 13 13 13 13 13 12 12 12 11 10 9 8 9 10 13 16 18 18 20 21 20 20 21 22 23 22 23 23 22 21 22 22 23 22 21 20 20 18 17 17 17 17 18 18 16 18 21 24 24 25 26 24 23 24
7 6 3 4 5 6 5 4 6 4 4 4 4 5 4 3 4 2 4 5 3 3 3 4 6 9 11 12 13 14 14 12 11 12 11 10 11 11 10 8 8 10 10 9 9 9 11 14 15 16 18 21 21 19 18 20 21 21 22 23 22 22 22 22 24 24 20 17 18 16 14 14 15 15 16 17 17 17 18 20 23 27 29 29 29 29
5 1 1 2 6 8 7 7 9 6 5 5 4 5 2 4 3 2 4 5 2 3 2 5 7 8 10 12 13 11 9 10 9 8 9 9 9 8 6 6 7 8 8 7 8 8 10 12 13 14 17 19 20 20 20 21 21 21 21 23 23 23 22 21 23 25 21 16 16 16 14 13 14 14 14 16 18 19 20 19 18 21 24 27 28 27
2 2 0 5 6 7 8 8 9 8 6 5 5 4 1 2 4 5 6 5 2 4 2 2 5 5 5 9 11 7 5 7 8 8 11 11 9 9 8 9 9 8 7 7 7 7 8 10 10 11 14 16 18 19 22 22 21 19 19 21 22 21 21 21 21 23 22 18 16 17 16 15 16 16 17 18 18 18 20 20 19 18 18 20 22 21
2 2 1 6 8 7 8 7 8 7 6 4 3 2 1 1 4 6 6 4 2 2 2 2 5 4 2 4 6 5 4 7 8 8 11 10 9 8 8 8 8 7 7 6 7 8 8 9 10 10 12 14 15 16 19 21 20 18 17 19 20 20 20 19 19 21 22 20 18 17 17 16 16 16 17 19 18 16 17 17 18 18 17 17 19 20
4 4 2 5 7 7 8 6 7 9 7 2 1 0 4 3 4 6 5 4 2 1 2 3 3 4 6 4 2 3 4 8 8 9 10 10 9 8 6 6 5 5 5 4 5 6 8 9 10 11 11 12 12 13 16 19 19 19 18 18 19 18 18 18 19 20 22 21 18 17 17 16 16 15 14 15 16 16 16 16 17 19 20 21 22 23
3 6 6 8 7 6 5 1 4 9 6 0 1 1 3 2 3 5 4 3 1 1 3 5 4 4 7 4 3 3 6 9 9 10 10 7 6 5 4 4 3 3 3 3 4 5 6 7 9 9 9 9 9 11 14 16 18 19 19 18 18 18 17 18 20 20 21 21 18 17 17 17 16 15 13 12 14 15 15 16 16 17 21 23 23 23
2 2 3 5 6 5 3 4 3 2 2 3 3 4 6 3 3 2 3 2 1 4 6 5 6 5 6 4 4 4 5 7 8 8 5 4 4 3 3 3 2 1 2 3 4 5 5 6 7 7 7 7 8 12 14 14 15 17 18 18 19 19 17 17 19 20 20 20 18 17 17 17 17 16 14 12 12 13 14 15 15 13 15 17 16 17
2 1 1 0 1 2 5 5 5 3 4 7 6 6 7 4 3 1 1 1 3 6 3 2 3 3 5 4 5 3 2 3 4 4 3 5 4 3 3 3 1 1 1 2 4 4 4 4 5 6 7 6 8 11 12 12 13 14 16 17 18 18 16 16 19 20 19 19 19 17 17 17 17 16 15 14 13 13 13 15 15 14 14 14 15 15
4 3 2 1 1 2 5 6 5 2 4 4 4 6 5 3 3 3 3 2 5 5 1 2 1 3 5 4 2 1 2 1 1 2 4 4 4 4 3 2 1 2 2 3 3 3 2 3 5 6 7 6 7 9 10 11 12 13 14 16 17 17 16 16 17 19 18 18 18 17 16 16 17 17 15 14 14 14 15 15 15 15 15 15 16 16
4 3 3 2 1 3 4 6 5 2 2 3 5 7 5 4 4 4 4 4 5 3 2 1 1 3 7 8 6 6 6 2 2 2 1 2 2 2 2 2 2 2 3 2 2 2 1 2 4 5 6 6 7 8 9 10 11 11 12 14 16 16 16 15 16 17 17 17 16 16 16 16 16 16 16 14 14 14 14 15 15 15 14 13 14 15
4 2 3 4 2 4 5 5 5 4 5 6 7 7 6 5 4 6 6 4 4 1 1 1 0 3 6 6 9 12 7 0 2 2 1 1 2 2 2 2 3 3 2 1 1 1 1 2 3 4 5 5 6 7 8 9 10 10 10 13 14 15 14 15 16 17 16 15 15 15 15 15 15 15 15 14 13 12 12 12 12 12 12 12 12 12
7 3 4 5 3 5 6 2 1 5 7 4 2 2 4 4 3 5 4 3 2 2 1 2 2 4 4 1 2 6 3 1 2 2 1 2 3 3 3 3 3 2 1 0 1 1 1 2 2 3 4 4 5 6 7 7 8 8 9 11 13 14 15 15 15 15 15 15 14 15 14 14 14 14 14 14 13 11 11 11 10 10 10 10 10 10
8 3 2 1 1 4 5 1 2 4 6 2 1 0 3 2 0 1 0 0 1 1 2 4 3 5 4 4 5 6 4 3 3 3 3 3 3 3 3 3 2 1 1 1 1 2 2 2 2 3 3 4 4 5 6 6 7 7 9 10 11 13 16 15 13 12 13 13 14 14 14 13 14 15 14 14 13 11 10 10 10 9 9 9 9 9
7 2 2 1 1 2 2 2 2 1 3 2 1 3 2 1 3 3 1 2 0 4 3 4 4 5 4 6 8 7 5 4 4 4 3 3 3 3 3 3 3 2 1 1 0 1 3 2 3 3 3 4 4 5 5 6 7 7 9 10 10 12 13 12 11 11 12 12 12 13 13 13 14 15 13 11 11 10 9 9 9 10 10 10 10 11
4 3 2 1 2 3 2 1 3 2 1 2 3 4 3 1 1 1 2 1 2 5 3 4 6 6 3 3 2 2 3 2 5 3 1 2 3 3 4 3 3 3 2 1 1 1 2 3 3 3 3 4 4 5 5 6 8 8 8 9 9 10 11 11 11 11 10 11 10 10 11 12 13 14 12 10 9 9 8 8 8 9 10 11 12 12
2 3 2 3 1 2 1 1 2 1 0 1 2 2 3 2 3 3 3 3 4 5 4 4 6 5 5 5 2 2 2 2 4 3 1 2 3 4 4 5 5 4 3 1 1 2 2 3 4 4 4 4 4 4 4 5 8 8 8 8 8 8 9 9 10 10 9 10 9 8 9 10 10 10 9 8 8 8 9 9 9 9 11 11 12 13
2 1 2 1 1 2 2 3 5 5 3 1 1 1 0 1 2 3 3 3 4 5 5 4 4 4 5 6 7 8 5 2 3 3 2 2 3 3 3 4 5 4 3 2 2 2 3 3 4 5 5 4 4 4 4 5 6 6 7 8 8 8 8 9 10 10 10 11 9 8 9 9 9 8 8 8 8 8 10 11 10 10 10 11 12 13
2 1 3 3 1 2 4 3 5 6 6 5 4 5 4 1 0 1 3 2 2 4 5 5 5 4 1 3 6 5 1 1 2 3 2 2 2 2 2 3 4 3 2 2 2 2 2 4 5 6 4 4 4 3 3 4 5 5 6 7 7 7 8 8 9 10 10 11 11 9 9 9 9 9 10 9 8 9 10 10 10 10 11 12 13 14
2 1 4 5 3 4 2 1 1 0 2 4 5 7 8 5 4 3 4 2 1 3 4 4 5 3 1 1 3 3 3 2 2 2 3 2 0 1 2 3 3 2 1 1 2 2 3 4 5 5 5 4 4 4 3 4 4 4 4 5 6 6 6 6 8 9 9 9 9 9 8 8 8 8 8 7 7 8 9 10 10 11 11 11 12 12
1 3 5 5 3 2 1 2 1 1 1 1 2 4 5 6 6 6 5 4 3 2 1 2 4 3 2 1 1 3 4 3 1 1 2 1 1 0 2 3 2 2 1 1 1 2 3 4 5 6 6 6 6 5 4 4 4 4 4 4 4 5 4 5 6 7 8 8 7 7 7 7 6 6 5 5 6 7 8 8 9 9 10 9 9 9
1 3 5 4 3 2 1 1 1 1 0 2 4 4 6 7 6 4 2 1 4 4 2 3 5 4 1 2 0 1 3 2 1 2 2 2 1 1 2 3 3 3 2 2 2 3 4 5 6 6 7 7 7 7 6 5 5 4 4 4 5 4 3 5 6 6 6 6 6 6 5 5 4 4 4 4 4 5 6 6 6 6 6 6 6 6
4 4 5 5 4 3 2 2 2 3 4 5 5 5 7 6 3 2 0 1 3 6 7 5 7 6 1 3 1 1 2 1 2 3 3 3 1 0 1 2 3 2 3 4 4 5 5 5 5 6 7 8 8 8 8 8 8 7 6 6 6 5 4 5 5 5 6 6 6 5 4 3 3 2 2 2 2 2 2 2 2 2 2 3 4 5
5 6 7 7 7 7 7 7 6 5 5 4 2 4 9 9 7 5 3 3 4 5 7 6 8 6 1 3 4 4 4 4 4 4 3 3 2 1 0 1 2 2 3 5 5 5 5 5 6 7 8 8 9 9 9 9 9 9 8 8 8 7 7 7 7 7 8 8 7 7 6 5 5 4 4 3 3 2 3 3 4 5 6 6 6 7
4 5 8 11 11 10 11 9 5 8 7 8 10 10 12 14 13 9 3 5 7 5 5 8 11 10 5 5 7 6 6 7 7 6 5 4 3 2 1 1 1 2 3 4 5 5 5 6 6 8 9 9 9 10 10 10 10 10 10 10 9 9 10 10 11 11 11 11 11 10 10 9 8 8 8 7 7 7 8 8 8 9 9 9 8 9
3 6 10 14 14 13 12 5 8 12 10 14 16 13 12 13 14 11 7 10 10 5 6 11 14 14 11 8 9 8 8 8 8 8 7 6 5 4 2 2 2 3 4 5 5 6 6 6 6 7 9 9 10 10 11 11 11 11 11 12 12 12 13 13 13 14 14 13 13 14 13 12 12 12 11 11 11 11 11 10 11 10 10 10 10 10
4 7 10 11 13 14 8 1 8 12 11 12 15 14 14 14 15 14 13 14 11 7 10 15 16 16 15 12 11 11 9 8 8 7 5 4 5 5 4 4 5 6 6 6 7 6 6 6 6 7 8 9 9 10 10 10 11 12 13 14 14 14 14 15 15 16 16 16 17 17 15 15 15 14 13 13 13 13 12 12 12 12 11 11 11 11
3 6 9 9 10 13 7 3 6 10 9 10 12 14 14 15 17 17 15 16 15 13 16 20 19 17 14 11 12 12 8 6 5 4 4 4 5 6 6 6 7 8 8 8 8 7 7 7 7 8 8 8 8 9 9 9 10 13 15 16 16 16 16 16 17 18 18 19 19 18 17 16 16 15 15 15 14 14 14 13 13 13 13 13 12 12
3 5 6 6 6 10 7 5 5 7 8 8 8 8 10 11 14 15 14 16 17 17 20 21 18 15 11 9 11 10 5 5 5 5 4 5 6 6 7 7 8 8 8 8 8 8 8 7 7 8 8 8 8 9 9 9 12 15 18 18 18 18 18 18 19 20 20 20 19 18 17 17 17 16 16 16 15 15 15 14 14 13 13 13 13 14
5 3 2 4 6 9 8 8 7 4 1 4 4 8 11 12 12 14 14 16 16 17 19 17 13 13 11 8 9 8 6 6 6 7 6 6 7 8 9 8 7 7 7 7 7 8 7 7 7 7 8 8 8 9 10 11 14 17 18 19 19 19 19 19 20 20 20 20 19 18 18 17 17 17 16 16 15 15 15 14 14 14 14 14 14 15
6 5 3 6 7 6 4 6 8 7 2 5 7 12 16 16 16 15 14 16 17 15 14 12 12 12 7 6 9 10 9 8 8 7 6 5 7 9 8 6 5 6 7 7 7 7 7 7 7 8 8 8 9 10 11 13 17 18 18 18 19 19 20 20 21 20 20 20 19 18 18 17 17 16 16 16 15 15 15 15 15 15 15 16 17 18
7 7 5 6 6 4 2 5 6 6 6 8 10 14 18 18 18 16 13 15 16 15 13 12 13 10 4 7 10 9 9 9 9 6 2 0 1 3 4 5 5 6 6 6 7 7 7 8 8 9 9 9 10 12 15 17 19 19 19 19 19 20 20 20 20 20 19 18 18 18 17 16 16 16 16 16 15 15 16 16 17 17 17 18 19 20
8 7 6 6 5 3 4 6 6 7 10 9 6 10 16 16 15 15 15 17 18 18 19 18 17 12 6 7 10 10 10 10 6 1 2 3 2 1 3 4 5 6 6 6 7 7 8 9 10 10 10 10 12 15 17 18 18 19 19 19 19 20 20 20 19 19 18 17 17 17 16 16 16 16 16 15 15 16 16 17 18 18 19 19 20 21
8 7 5 5 6 3 4 6 7 4 4 4 0 3 8 11 11 12 14 17 18 18 18 17 18 16 12 9 8 7 6 5 2 1 1 2 2 1 1 3 5 6 6 7 8 9 9 10 11 11 11 12 14 16 16 16 17 18 18 19 19 19 19 19 19 18 17 17 16 16 16 16 15 15 15 15 16 17 18 18 19 19 20 21 22 23
7 8 6 6 6 5 5 7 5 3 2 3 4 6 10 11 12 12 11 13 15 15 14 14 17 19 17 10 4 4 5 5 0 3 3 3 2 2 2 4 7 7 8 10 11 11 12 12 12 13 13 14 15 15 16 16 16 18 18 18 19 18 18 18 18 17 16 15 15 15 15 15 15 15 15 16 17 18 19 20 20 20 21 22 23 24
5 6 6 7 6 5 6 7 6 5 7 9 9 9 11 11 11 12 10 10 11 14 15 16 17 20 15 6 7 6 6 3 5 6 5 5 5 5 5 7 8 9 11 12 13 13 13 12 13 13 13 15 15 14 15 15 15 18 18 17 17 17 18 17 16 15 14 14 14 14 14 14 15 15 16 17 18 19 19 20 20 21 21 23 24 25
4 3 3 6 6 6 7 8 7 7 8 9 6 5 8 9 7 7 6 9 12 15 16 17 18 19 12 7 9 7 5 4 8 7 5 7 7 7 7 8 9 11 12 12 13 14 13 13 14 14 14 16 14 13 14 13 14 17 17 16 15 17 17 16 14 14 13 13 13 13 13 14 15 16 16 17 17 18 19 21 21 21 23 24 25 27
5 3 4 7 7 8 8 7 6 5 5 6 4 5 7 9 10 8 7 9 11 13 14 15 17 16 9 9 9 9 7 8 8 3 7 9 8 8 8 9 10 12 13 12 13 14 14 14 15 14 14 14 13 12 12 12 14 16 16 15 16 16 15 13 12 12 13 13 13 13 14 14 15 16 16 17 17 18 20 21 22 23 24 26 26 26
5 5 6 8 8 9 9 8 6 4 3 4 5 7 10 11 9 9 9 6 4 7 10 13 14 13 10 9 9 9 7 3 2 6 10 11 10 9 10 11 12 12 13 13 14 14 14 14 14 14 14 12 12 12 11 11 14 15 14 14 15 14 12 11 11 11 12 13 13 13 13 14 14 16 16 17 18 19 21 22 23 24 25 26 26 26
7 6 6 8 8 8 8 7 7 6 4 5 5 5 10 10 7 8 5 1 1 4 6 8 9 9 9 8 8 6 3 5 8 9 10 10 10 10 11 12 13 13 13 13 13 12 13 14 14 14 13 12 12 12 11 12 14 14 13 14 14 12 11 10 10 11 12 12 12 12 14 14 15 17 18 19 20 21 23 23 23 24 25 25 26 27
7 6 6 7 7 6 6 7 8 8 5 10 9 2 5 6 3 2 3 2 2 1 2 2 3 3 3 4 5 5 7 8 9 10 10 10 10 11 11 12 13 12 13 12 11 11 12 13 13 13 12 12 12 12 12 13 15 14 13 13 11 10 10 10 10 11 12 12 12 14 15 16 17 18 20 21 21 22 23 24 24 26 26 25 25 27
8 8 6 6 7 6 6 8 6 4 3 10 9 4 7 5 2 2 3 2 1 1 1 2 1 1 3 5 7 8 9 9 9 10 11 10 10 10 11 11 12 12 12 12 11 11 12 13 13 13 12 11 11 11 11 12 14 14 13 11 9 9 10 10 10 11 12 13 14 15 16 17 18 19 19 20 21 22 23 24 24 25 24 23 24 25
8 7 4 4 6 5 5 6 4 1 2 4 2 0 2 2 4 3 2 2 2 3 2 3 3 3 4 6 8 8 8 9 10 11 10 10 10 10 10 11 12 12 12 12 12 12 12 13 14 14 13 11 10 11 12 12 13 13 11 9 8 10 10 10 11 12 13 14 15 16 16 17 18 19 20 20 22 23 23 23 24 24 23 21 20 19
1 1 2 2 2 2 3 4 3 1 0 1 3 3 3 3 4 4 2 2 2 3 2 2 4 6 6 8 9 8 8 10 11 10 10 11 10 10 11 11 11 11 12 12 12 13 14 15 15 14 14 11 10 11 11 11 11 11 9 7 8 10 9 10 11 12 13 14 15 16 17 18 19 20 21 22 23 23 22 22 23 23 21 17 16 17
1 2 3 3 3 4 7 6 3 2 1 2 2 1 2 2 2 2 1 2 2 2 3 3 5 7 7 7 8 9 10 11 12 10 9 9 9 9 10 11 11 11 11 11 12 13 14 14 13 13 13 11 10 9 9 9 10 9 7 7 8 9 9 10 11 12 13 14 15 16 18 18 20 21 22 23 23 23 23 23 22 22 20 18 19 20
1 4 4 6 7 6 5 2 2 1 1 1 1 1 1 2 2 1 0 1 2 3 4 4 5 6 6 6 7 10 11 11 11 11 9 8 8 9 9 10 12 11 10 11 13 14 14 12 11 12 12 11 10 9 8 8 7 6 5 6 8 8 9 10 11 12 13 14 15 17 18 18 20 22 22 23 23 24 24 24 23 23 21 20 20 21
2 4 4 5 7 5 3 1 2 1 3 4 6 6 5 3 3 2 2 2 4 4 5 5 4 4 5 6 7 10 12 10 9 10 11 9 8 9 10 11 12 11 11 13 13 14 14 13 12 12 11 10 9 8 7 7 5 3 4 6 7 8 9 10 11 12 13 14 15 17 18 18 19 21 22 23 24 25 25 24 23 23 23 21 19 19
3 4 3 3 5 6 3 4 5 3 3 3 6 8 6 3 4 4 3 3 5 5 6 6 5 4 4 4 7 11 11 9 8 9 9 8 9 11 12 13 13 11 12 13 14 14 14 13 13 12 11 10 9 8 7 6 4 2 4 6 7 8 10 11 12 12 13 14 15 16 17 18 19 20 21 23 24 25 27 26 24 24 24 24 24 22
4 5 5 5 5 4 1 5 7 5 3 0 1 4 6 6 6 5 5 6 6 6 7 7 6 5 4 4 7 11 11 9 9 10 9 8 10 13 13 14 13 12 13 14 14 14 13 12 11 10 10 9 8 7 7 6 4 2 4 6 7 9 11 11 12 12 12 14 14 15 15 17 18 18 19 19 20 23 26 29 30 28 26 25 27 27
Wind_Direction
190 182 193 210 201 200 205 210 221 165 227 212 197 208 206 198 200 133 100 102 198 226 225 229 241 251 255 253 251 236 206 209 226 230 232 231 230 230 227 230 231 233 236 224 217 208 200 203 205 206 205 205 208 209 205 203 203 203 201 200 200 199 198 198 197 197 200 204 208 211 214 216 217 219 220 222 226 229 229 232 235 234 233 237 240 242
200 207 203 209 205 198 197 193 163 98 206 226 209 206 212 215 180 102 100 122 141 240 236 227 245 254 257 258 255 249 239 233 232 232 235 235 235 234 230 231 231 233 226 198 196 198 202 210 211 211 211 205 203 207 207 206 207 206 203 202 202 199 199 200 200 199 200 203 205 207 211 214 216 218 218 219 224 228 229 227 228 232 236 234 230 237
197 218 203 180 136 134 153 150 182 208 196 217 220 214 218 202 147 111 115 130 142 231 243 226 259 262 259 259 254 246 243 243 240 237 238 237 236 235 231 231 228 226 216 201 202 200 202 211 211 211 213 212 210 210 209 208 208 205 204 205 202 200 202 201 202 202 202 204 204 205 208 210 215 220 220 221 220 223 229 229 230 235 235 228 229 242
193 211 189 127 121 134 138 164 188 203 210 214 218 214 209 157 168 184 150 144 159 231 295 313 286 274 263 259 252 242 239 241 240 239 239 238 237 237 236 238 229 220 218 213 207 201 200 203 201 202 210 216 216 212 206 205 205 203 203 205 202 201 203 202 205 206 203 202 203 205 207 208 216 221 220 220 221 222 228 232 235 237 233 229 234 243
176 97 14 127 157 171 167 177 192 202 210 214 231 231 212 156 172 46 122 150 179 204 268 297 283 273 251 243 245 233 225 235 235 233 239 237 233 237 246 256 241 225 226 221 209 204 204 201 196 200 211 217 216 213 209 205 203 202 203 204 203 202 202 202 207 207 202 198 199 202 206 210 218 222 215 212 216 219 223 227 232 235 234 233 236 239
166 54 245 150 155 178 172 181 199 207 210 202 218 236 266 174 150 101 129 159 218 214 194 256 265 276 231 222 234 215 193 228 223 223 239 237 223 217 225 237 238 234 234 230 227 221 216 214 207 202 207 213 216 217 218 214 206 200 201 203 201 200 201 201 203 203 199 197 196 196 199 203 212 219 216 213 214 215 220 225 227 231 231 227 229 231
119 100 221 155 155 165 176 200 198 201 224 208 199 206 139 181 147 134 158 189 249 229 136 214 250 274 248 216 219 190 203 236 222 220 237 239 223 205 209 223 224 225 225 223 229 229 226 225 221 215 209 210 217 219 220 218 209 198 196 199 197 196 199 199 197 197 196 195 196 197 199 203 208 216 218 219 220 221 223 226 227 227 226 224 230 233
114 137 164 158 160 164 185 206 182 191 224 214 41 173 158 178 177 161 180 219 269 42 145 208 237 276 273 250 164 154 235 252 239 234 236 232 220 202 197 205 204 213 218 220 226 225 226 223 221 224 218 214 218 215 214 215 210 204 198 194 194 195 195 196 195 193 193 195 197 199 203 207 212 217 218 217 220 223 225 228 230 232 234 237 244 246
101 156 167 158 168 180 191 218 157 188 215 183 32 113 132 149 175 178 204 224 301 332 235 198 176 256 267 236 154 169 244 254 246 243 236 216 194 182 177 173 176 197 217 241 248 239 234 226 221 221 215 210 207 203 207 210 211 209 203 196 195 194 192 195 196 192 192 196 197 198 203 209 214 219 220 216 215 218 221 224 228 235 239 241 244 243
50 172 181 164 181 179 128 29 18 204 183 146 155 109 96 100 108 156 218 212 195 255 248 184 175 245 273 242 191 182 225 241 242 241 221 154 137 142 142 139 146 180 217 251 260 256 250 234 219 210 206 202 202 207 207 205 206 205 201 197 196 193 191 193 194 191 191 194 195 199 204 207 211 215 218 217 215 215 218 222 223 228 234 235 235 238
78 104 290 136 188 144 104 71 20 15 116 142 154 117 103 115 110 126 210 214 235 243 245 137 166 252 282 259 209 184 210 235 243 233 138 112 121 131 126 122 103 18 293 267 264 259 249 227 208 201 199 193 202 211 203 197 199 195 192 193 191 191 188 187 190 190 191 193 194 199 203 205 208 211 214 214 215 215 217 222 225 226 229 231 234 241
114 134 177 71 42 163 118 88 42 42 139 150 159 139 124 122 142 189 173 185 237 237 183 51 356 249 245 245 188 91 12 26 219 195 124 115 120 121 119 113 79 8 322 288 273 263 229 196 187 189 187 174 181 193 184 185 188 182 184 187 185 186 185 182 184 187 188 190 193 198 202 205 208 211 213 214 216 217 218 223 226 228 232 236 238 241
129 122 134 93 297 223 154 115 84 80 187 201 172 159 167 165 169 207 193 195 230 225 103 78 340 246 244 253 254 268 280 259 205 199 145 106 112 108 97 67 37 345 325 303 278 268 224 187 173 175 172 164 165 169 171 176 176 175 179 180 179 180 179 177 178 180 183 186 191 196 200 205 208 212 214 216 218 219 221 224 226 228 232 236 239 241
151 120 166 156 178 226 204 160 142 168 195 196 181 177 192 179 177 207 201 204 227 175 80 187 226 258 262 264 255 258 266 4 113 213 252 269 265 288 322 333 319 308 317 297 262 250 206 178 164 165 160 157 157 156 160 164 166 167 170 172 175 172 169 172 176 180 181 183 190 194 198 202 206 209 212 214 217 217 218 221 223 227 231 235 238 242
178 182 184 168 150 181 194 215 168 157 170 191 192 193 210 206 207 209 203 211 199 114 116 191 203 235 248 352 271 262 262 110 154 206 225 253 252 268 286 282 275 280 308 223 232 193 153 148 145 146 143 140 144 151 154 157 160 158 160 166 167 166 172 178 180 182 181 183 189 191 194 197 200 205 206 209 213 213 214 217 221 226 228 232 235 238
192 200 113 117 274 170 164 284 339 128 151 188 4 324 231 250 62 133 126 94 110 46 176 186 235 248 260 307 284 254 214 177 185 178 187 228 225 218 253 247 220 203 110 154 198 140 120 119 128 122 129 134 136 146 151 156 159 154 157 161 161 174 184 181 177 177 177 182 186 188 192 193 196 200 199 204 211 211 213 216 218 223 225 229 233 235
189 182 49 57 128 104 74 347 355 93 155 160 161 187 206 18 70 115 150 90 64 278 221 174 238 263 273 282 264 241 218 181 161 164 191 205 189 187 226 218 172 120 115 149 129 113 109 110 113 101 112 125 136 150 153 159 160 154 159 157 156 175 183 174 170 174 175 179 183 186 192 191 195 201 200 202 209 211 215 217 218 223 227 229 232 234
169 129 40 4 113 73 347 351 57 22 77 132 177 174 143 54 29 155 234 179 197 252 244 178 229 258 260 259 230 199 236 193 148 148 220 203 189 197 197 181 147 117 118 128 80 106 100 102 103 96 106 114 130 142 141 160 166 159 158 153 151 169 177 171 171 173 173 177 180 184 191 195 200 206 209 210 211 214 218 220 222 225 227 230 234 237
135 124 59 5 80 88 317 202 123 104 47 28 236 174 130 203 210 183 213 232 216 236 253 212 218 242 238 233 219 191 232 205 145 128 168 185 185 196 180 154 134 123 117 87 82 99 89 97 100 97 101 99 113 127 129 161 172 164 158 152 147 160 170 171 172 171 172 176 178 183 190 197 201 205 209 210 209 215 220 222 226 229 232 238 242 247
106 151 134 48 350 112 147 214 188 174 160 37 277 192 111 273 233 189 200 235 236 237 253 237 214 230 222 216 229 237 247 227 145 115 117 145 153 178 160 132 128 121 107 80 75 82 71 80 88 88 93 97 110 131 140 153 158 158 162 158 151 154 162 170 172 171 175 182 184 185 186 190 193 197 202 203 203 212 222 230 237 240 245 253 257 259
126 261 156 112 337 181 176 212 202 179 170 174 181 178 181 187 296 250 221 222 255 243 247 249 246 248 210 182 214 227 256 80 95 89 121 133 122 140 108 99 111 106 99 82 69 79 72 74 83 87 99 115 120 128 141 146 144 151 161 161 160 160 164 173 179 180 185 193 197 198 199 201 205 211 215 219 223 230 238 246 252 254 257 261 263 263
169 191 140 138 186 193 179 349 350 27 162 182 189 186 190 177 153 198 212 182 212 243 244 261 264 257 113 133 205 153 103 111 104 95 131 140 57 130 92 86 98 98 111 88 65 86 84 79 85 87 96 105 102 107 128 141 141 143 150 161 164 158 158 170 181 187 191 196 199 201 205 211 218 224 229 236 243 249 252 256 259 261 262 264 264 263
92 108 117 132 165 168 61 44 50 356 336 288 242 204 197 188 187 206 211 188 186 208 4 321 278 275 116 128 196 125 114 118 122 122 147 170 259 259 80 85 89 85 105 99 77 91 94 98 104 102 102 102 97 100 116 125 128 133 143 158 155 142 151 169 176 186 190 189 191 194 200 209 216 222 228 237 247 254 257 259 262 264 264 264 264 268
133 122 123 115 100 89 98 113 103 90 235 247 237 215 203 198 198 209 224 188 177 175 175 220 249 261 179 136 52 87 105 117 192 220 216 229 254 337 45 65 74 79 102 117 113 108 110 113 114 110 104 98 92 88 91 97 103 111 121 134 137 136 159 174 174 180 181 178 179 182 186 192 200 210 219 228 243 255 257 259 262 264 269 272 278 293
173 165 148 133 137 154 179 186 197 203 206 217 214 201 204 196 133 97 289 265 209 193 193 216 250 255 179 113 139 159 147 215 228 204 214 238 246 4 38 61 75 87 110 121 121 113 110 104 98 96 90 85 84 82 82 87 94 100 108 120 127 129 137 145 150 153 152 151 152 152 152 158 165 175 184 193 213 240 246 256 276 294 324 334 338 345
179 184 168 167 177 179 188 201 203 186 180 198 195 172 193 193 169 170 206 224 220 198 184 208 247 250 161 136 198 188 167 195 202 185 207 234 238 265 29 91 99 130 133 124 117 105 99 93 86 86 84 81 81 80 81 86 92 95 95 102 109 110 113 118 122 127 127 125 122 116 112 108 104 104 103 105 103 88 72 55 40 32 28 21 14 8
176 198 193 199 204 200 206 210 160 121 140 185 197 188 189 196 194 189 194 210 215 208 193 217 238 244 227 187 201 201 182 187 185 179 193 210 213 230 223 160 131 148 136 119 117 110 103 97 89 86 83 81 81 84 87 89 92 92 88 90 97 100 104 106 108 110 109 108 105 97 94 93 92 93 90 85 81 72 62 54 45 39 32 25 20 12
169 206 207 211 222 227 233 225 139 142 169 195 199 193 186 191 193 191 206 218 212 204 223 227 229 240 242 208 194 206 199 188 182 181 187 189 188 194 191 196 198 174 146 124 124 121 111 101 91 87 83 83 86 88 89 91 93 95 93 93 96 99 101 102 104 106 103 100 97 92 90 90 87 85 81 76 71 63 56 50 41 36 31 24 19 12
189 208 212 214 229 237 242 131 146 173 192 200 201 197 186 183 186 193 211 221 208 197 232 236 226 230 238 223 205 205 199 191 182 172 160 150 156 168 180 195 202 187 166 144 132 122 113 104 94 91 87 87 91 89 87 87 88 91 93 95 97 99 102 104 104 103 100 96 93 90 88 86 82 78 73 68 63 56 50 45 39 33 28 23 18 13
218 211 214 211 229 238 228 126 166 200 208 209 212 207 192 184 187 195 207 218 215 214 230 238 236 234 236 227 217 211 193 172 152 123 113 136 154 170 185 200 204 188 168 151 137 122 111 101 93 93 88 84 85 86 86 82 83 92 95 96 98 98 101 105 104 100 97 93 90 88 86 82 77 72 67 63 58 54 49 44 39 34 28 25 22 17
224 212 205 190 223 239 216 158 181 209 215 219 212 195 184 182 192 204 212 216 218 224 232 239 246 250 245 225 214 206 161 119 129 143 157 162 163 178 193 201 197 179 157 142 127 110 103 101 98 95 89 82 79 80 82 81 86 95 98 99 100 100 102 103 99 96 93 89 87 86 83 79 74 70 65 61 57 52 48 43 38 33 27 23 18 13
198 206 164 168 216 233 207 179 171 150 196 246 208 178 180 182 193 206 215 215 212 218 231 238 244 248 243 216 200 188 152 145 165 178 190 183 168 180 197 197 181 158 139 126 111 102 104 105 101 96 90 84 79 78 83 92 97 99 99 101 102 101 102 100 95 93 90 87 85 83 79 76 72 66 61 57 52 46 41 35 31 26 20 15 10 5
185 195 181 180 210 234 207 167 149 124 127 241 215 196 193 196 203 207 216 222 216 214 223 227 233 242 232 182 190 189 174 181 191 197 217 211 178 176 183 175 140 116 113 110 107 109 109 103 97 94 90 85 83 89 99 106 108 106 104 104 104 102 101 98 94 91 88 84 82 77 74 70 65 60 55 50 45 39 35 30 25 20 15 11 6 2
186 201 201 189 209 230 106 101 128 162 212 226 212 200 198 201 205 206 217 224 218 218 227 235 243 244 189 164 192 192 186 203 215 216 220 242 164 157 138 125 114 109 111 109 109 111 107 106 103 96 92 92 97 106 112 112 112 110 108 107 105 103 100 96 92 88 83 80 76 71 68 65 60 55 50 45 41 35 30 26 21 15 10 7 2 359
182 200 203 198 212 201 117 126 172 211 226 231 222 200 200 206 206 208 223 226 217 218 226 237 247 242 203 184 196 193 195 203 212 228 55 53 30 45 89 115 123 122 125 122 118 116 114 117 116 107 103 106 110 114 114 112 113 111 109 107 104 100 96 92 89 83 77 73 70 66 63 59 54 50 45 39 34 29 24 20 15 9 4 1 357 353
179 188 198 206 203 172 143 178 204 233 222 207 174 161 190 204 206 212 229 230 220 216 219 231 244 245 237 222 201 187 182 158 99 22 69 69 50 52 92 133 128 125 131 129 126 124 120 118 117 115 115 117 120 121 118 116 115 112 108 105 101 96 91 87 82 76 71 66 63 59 56 51 47 42 36 30 26 22 17 13 9 5 360 355 352 349
187 184 190 206 200 191 200 204 218 298 301 198 202 190 185 189 193 202 227 238 226 217 217 225 236 241 239 222 162 111 105 101 97 231 181 147 124 95 75 98 110 115 118 116 115 114 113 112 113 115 118 121 122 123 120 117 115 111 105 100 95 90 85 79 74 68 63 59 56 52 48 44 40 35 30 24 20 17 13 8 5 2 357 351 348 346
212 199 195 204 201 200 218 223 223 240 241 228 217 197 190 195 194 193 216 246 235 216 212 217 228 237 234 185 119 116 114 130 240 230 169 156 153 123 93 91 103 111 114 116 116 111 106 107 109 112 117 120 120 119 117 114 112 108 101 93 89 85 78 71 65 61 57 53 52 49 44 40 35 30 25 20 16 13 9 5 1 358 354 350 345 342
221 240 215 213 210 198 211 228 222 218 234 235 215 164 174 181 162 161 204 245 240 223 211 210 222 233 222 147 131 147 137 183 240 232 157 149 148 132 123 114 109 111 111 113 114 113 112 113 112 111 112 113 114 114 113 111 108 103 95 87 83 77 69 62 55 54 54 51 49 46 41 37 32 26 21 17 13 10 5 1 359 356 352 349 345 341
202 218 213 216 219 208 209 226 229 231 243 222 172 141 163 153 130 145 207 241 240 226 212 209 221 229 206 146 150 176 187 215 240 220 128 134 131 124 126 123 120 118 112 109 111 113 113 113 112 107 103 105 109 110 109 108 104 97 89 83 79 69 61 55 53 55 56 53 49 44 38 34 29 24 19 13 9 7 4 0 357 354 351 348 345 341
186 200 205 213 221 217 215 226 237 242 230 186 161 152 150 140 144 186 214 236 221 192 195 206 215 220 208 179 176 197 211 212 145 112 122 127 122 118 119 117 117 116 112 113 116 115 111 108 107 102 98 103 111 109 107 106 100 92 86 81 73 62 57 56 58 59 57 52 47 41 37 33 27 22 17 12 8 4 2 0 356 352 350 347 345 341
180 189 201 209 216 221 224 229 241 247 211 157 149 156 154 155 185 207 204 317 48 150 179 201 202 205 211 199 186 189 158 99 103 118 126 127 124 124 123 120 118 113 111 115 117 115 109 104 102 99 97 103 108 106 109 109 100 91 85 78 66 57 59 60 59 58 53 47 41 36 32 27 22 18 13 9 7 2 359 359 356 352 350 347 343 340
172 173 193 202 202 215 227 219 227 248 212 141 123 142 199 192 198 164 132 63 5 93 126 182 193 193 188 167 146 130 119 118 123 126 126 127 126 125 128 129 125 121 120 120 117 117 115 107 101 97 96 101 105 104 108 109 102 93 82 72 62 58 60 58 56 53 47 39 33 29 26 21 17 15 11 8 5 1 359 358 355 353 353 350 344 341
173 176 191 200 191 192 209 210 214 248 196 150 142 183 213 194 78 66 128 124 132 178 159 161 174 137 130 135 126 122 128 132 132 131 130 129 129 129 131 130 127 126 124 118 115 119 118 112 106 101 99 100 99 99 104 107 104 95 81 68 60 59 57 53 52 48 40 33 28 24 21 18 15 13 10 6 4 1 0 358 356 355 353 349 346 342
190 188 184 192 195 194 209 219 215 191 156 160 141 321 218 145 62 51 74 90 134 185 188 169 159 135 118 122 122 127 138 138 137 139 137 133 134 134 131 127 124 122 119 114 116 122 121 117 115 109 102 97 94 96 101 103 100 93 81 67 58 54 51 48 46 42 35 30 26 21 17 15 13 11 9 6 5 3 1 357 356 355 351 346 343 340
207 167 141 160 186 219 241 226 202 181 302 48 47 24 353 6 34 46 49 55 100 147 151 143 148 145 138 134 133 138 146 143 141 141 136 135 136 132 127 125 120 117 116 115 121 128 128 125 122 115 107 101 99 101 99 95 94 92 83 68 57 52 48 45 43 39 33 27 23 19 16 13 11 9 8 6 6 5 1 358 356 353 349 342 338 336
353 150 173 189 186 207 226 216 161 122 2 17 43 25 334 343 14 24 20 34 58 114 135 119 126 140 146 143 140 143 148 147 142 138 136 136 136 134 134 130 124 120 119 119 127 135 134 128 121 116 112 107 105 107 99 86 87 91 83 64 55 51 48 46 44 38 31 27 23 18 16 13 10 8 7 6 4 2 360 358 354 350 346 343 341 339
175 159 179 206 204 206 224 214 95 95 243 255 264 270 266 223 197 168 30 76 93 109 113 104 116 137 147 148 139 138 145 152 147 142 142 140 136 138 139 133 129 125 120 125 136 139 134 128 121 117 116 113 110 113 106 90 88 92 77 56 48 49 47 45 42 36 29 27 23 19 17 14 11 8 6 3 1 358 356 354 352 348 345 344 343 339
127 160 172 194 205 222 248 159 129 223 224 203 208 218 221 206 172 137 103 114 118 113 107 100 100 118 138 149 145 140 145 152 150 142 141 141 141 141 138 135 134 131 128 135 143 140 135 134 130 122 118 116 120 125 116 106 110 110 70 52 44 45 44 41 39 35 31 27 24 20 17 15 11 8 4 1 357 355 353 351 350 347 343 342 343 339
155 180 169 163 197 230 237 159 159 208 232 208 209 209 196 141 118 121 126 137 146 152 142 121 93 70 86 125 150 154 150 144 141 139 136 137 140 139 138 138 135 130 133 140 143 141 140 139 136 131 125 122 130 137 130 127 137 115 60 51 44 42 41 40 39 37 31 26 22 18 15 13 10 6 4 1 357 352 349 348 348 346 343 341 341 338
188 193 183 188 209 243 234 149 167 205 236 271 179 181 161 139 138 157 173 174 171 169 160 144 130 117 98 105 147 159 153 138 134 135 128 127 136 137 139 143 141 137 142 146 144 142 141 140 139 138 133 131 137 143 145 150 156 99 58 51 45 41 38 37 36 33 27 23 19 16 13 11 8 5 2 359 356 352 348 345 343 342 342 340 338 337